EW2181 Weather Reports


Display with metric or nautical units.
time (UTC)temp
F
wind
direction
speed
MPH
gust
MPH
rain 1hr
in
rain 24hr
in
rain mn
in
humidity
%
barometer
mb
20190224011919 40 0 0.0 0.0 0.00 0.01 0.00 99 1033.9
20190224010918 40 0 0.0 0.0 0.00 0.01 0.00 98 1033.9
20190224005920 40 0 0.0 0.0 0.00 0.02 0.00 98 1034.0
20190224004918 41 0 0.0 0.0 0.00 0.02 0.00 98 1033.8
20190224003918 41 0 0.0 0.0 0.00 0.02 0.00 99 1034.0
20190224002918 41 0 0.0 0.0 0.00 0.02 0.00 98 1033.9
20190224001919 41 0 0.0 0.0 0.00 0.02 0.00 98 1033.8
20190224000918 41 0 0.0 0.0 0.00 0.02 0.00 98 1033.7
20190223235920 41 0 0.0 0.0 0.00 0.02 0.00 98 1034.0
20190223234918 41 0 0.0 1.0 0.00 0.02 0.02 98 1034.1
20190223233918 41 0 0.0 1.0 0.00 0.02 0.02 98 1034.1
20190223232918 42 0 0.0 1.0 0.00 0.02 0.02 97 1034.1
20190223231918 42 0 0.0 1.0 0.00 0.02 0.02 97 1034.0
20190223230919 43 0 0.0 0.0 0.00 0.02 0.02 98 1033.9
20190223225918 43 0 0.0 1.0 0.00 0.02 0.02 98 1034.2
20190223224918 43 82 0.0 1.0 0.00 0.02 0.02 98 1033.9
20190223223918 44 90 1.0 5.0 0.00 0.02 0.02 98 1033.8
20190223222918 43 0 0.0 1.0 0.00 0.02 0.02 98 1033.9
20190223221918 43 0 0.0 0.0 0.00 0.02 0.02 98 1034.3
20190223220918 43 0 0.0 0.0 0.00 0.02 0.02 97 1033.9
20190223215918 44 0 0.0 0.0 0.00 0.02 0.02 98 1033.8
20190223214918 44 0 0.0 0.0 0.00 0.02 0.02 98 1034.0
20190223213918 44 0 0.0 0.0 0.00 0.02 0.02 98 1034.2
20190223212918 44 0 0.0 0.0 0.00 0.02 0.02 97 1034.3
20190223211918 44 0 0.0 0.0 0.00 0.02 0.02 97 1034.3
20190223210918 44 0 0.0 0.0 0.00 0.02 0.02 96 1034.2
20190223205918 44 0 0.0 0.0 0.00 0.02 0.02 97 1033.9
20190223204918 44 0 0.0 0.0 0.00 0.02 0.02 97 1034.0
20190223203918 44 0 0.0 0.0 0.00 0.02 0.02 97 1033.9
20190223202918 44 0 0.0 0.0 0.00 0.02 0.02 97 1033.9
20190223201918 45 0 0.0 0.0 0.00 0.02 0.02 96 1034.0
20190223200919 45 0 0.0 0.0 0.00 0.02 0.02 97 1033.9
20190223195918 45 0 0.0 0.0 0.00 0.02 0.02 97 1033.8
20190223194918 45 0 0.0 0.0 0.00 0.02 0.02 96 1033.8
20190223193919 45 0 0.0 0.0 0.00 0.02 0.02 96 1033.5
20190223192918 45 0 0.0 0.0 0.00 0.02 0.02 96 1033.5
20190223191917 46 0 0.0 0.0 0.00 0.02 0.02 96 1033.8
20190223190918 46 0 0.0 0.0 0.00 0.02 0.02 96 1033.7
20190223185918 46 0 0.0 0.0 0.00 0.02 0.02 96 1033.5
20190223184918 46 0 0.0 1.0 0.00 0.02 0.02 96 1033.5
20190223183918 46 0 0.0 0.0 0.00 0.02 0.02 96 1033.5
20190223182918 47 0 0.0 0.0 0.00 0.02 0.02 95 1033.6
20190223181917 47 0 0.0 0.0 0.00 0.02 0.02 95 1033.6
20190223180918 47 0 0.0 0.0 0.00 0.02 0.02 95 1033.7
20190223175918 47 0 0.0 0.0 0.00 0.02 0.02 95 1033.3
20190223174918 47 0 0.0 0.0 0.00 0.02 0.02 94 1033.6
20190223173918 48 0 0.0 0.0 0.00 0.02 0.02 94 1033.6
20190223172917 48 0 0.0 0.0 0.00 0.02 0.02 94 1033.4
20190223171918 48 0 0.0 1.0 0.00 0.02 0.02 93 1033.1
20190223170918 49 0 0.0 3.0 0.00 0.02 0.02 92 1033.1
20190223165917 49 0 0.0 1.0 0.00 0.02 0.02 92 1033.1
20190223164918 49 0 0.0 3.0 0.00 0.02 0.02 92 1033.1
20190223163919 49 0 0.0 1.0 0.00 0.02 0.02 91 1033.1
20190223162919 50 0 0.0 1.0 0.00 0.02 0.02 90 1033.1
20190223161918 50 0 0.0 3.0 0.00 0.02 0.02 89 1033.0
20190223160918 51 0 0.0 3.0 0.00 0.02 0.02 88 1032.8
20190223155918 51 0 0.0 3.0 0.00 0.02 0.02 86 1032.8
20190223154918 52 0 0.0 5.0 0.00 0.02 0.02 85 1032.7
20190223153918 54 0 0.0 3.0 0.00 0.02 0.02 82 1032.6
20190223152918 55 0 0.0 3.0 0.00 0.02 0.02 81 1032.4
20190223151918 55 33 0.0 5.0 0.00 0.02 0.02 82 1032.2
20190223150918 55 285 1.0 4.0 0.00 0.02 0.02 81 1032.1
20190223145918 56 35 1.0 4.0 0.00 0.02 0.02 80 1032.0
20190223144918 56 78 1.0 8.0 0.00 0.02 0.02 80 1032.2
20190223143917 56 172 1.0 5.0 0.00 0.02 0.02 80 1032.4
20190223142918 56 64 1.0 8.0 0.00 0.02 0.02 79 1032.4
20190223141918 56 75 1.0 8.0 0.00 0.02 0.02 80 1032.4
20190223140918 57 52 1.0 5.0 0.00 0.02 0.02 79 1032.5
20190223135918 57 63 1.0 8.0 0.00 0.02 0.02 79 1032.2
20190223134918 57 52 1.0 7.0 0.00 0.02 0.02 80 1032.2
20190223133918 57 71 1.0 4.0 0.00 0.02 0.02 81 1032.3
20190223132918 56 20 1.0 5.0 0.00 0.02 0.02 80 1032.4
20190223131918 56 110 1.0 7.0 0.00 0.02 0.02 82 1032.3
20190223130917 56 192 1.0 5.0 0.00 0.02 0.02 81 1032.3
20190223125918 56 32 0.0 7.0 0.00 0.02 0.02 82 1032.2
20190223124917 56 311 1.0 7.0 0.00 0.02 0.02 84 1032.2
20190223123917 56 106 0.0 5.0 0.00 0.02 0.02 84 1032.2
20190223122918 55 84 1.0 5.0 0.00 0.02 0.02 85 1032.4
20190223121918 55 0 0.0 5.0 0.00 0.02 0.02 88 1032.6
20190223120917 54 0 0.0 3.0 0.00 0.02 0.02 91 1032.7
20190223115917 54 0 0.0 3.0 0.00 0.02 0.02 95 1032.8
20190223114918 53 0 0.0 5.0 0.00 0.02 0.02 98 1032.8
20190223113918 52 75 1.0 4.0 0.00 0.02 0.02 100 1033.1
20190223112918 51 52 1.0 4.0 0.00 0.02 0.02 100 1033.2
20190223111918 51 82 1.0 5.0 0.00 0.02 0.02 100 1033.3
20190223110917 51 76 0.0 7.0 0.00 0.02 0.02 100 1033.5
20190223105917 51 0 0.0 4.0 0.00 0.02 0.02 100 1033.4
20190223104918 50 0 0.0 1.0 0.00 0.02 0.02 100 1033.5
20190223103917 49 0 0.0 3.0 0.00 0.02 0.02 100 1033.5
20190223102918 49 0 0.0 1.0 0.00 0.02 0.02 100 1033.5
20190223101917 48 0 0.0 1.0 0.00 0.02 0.02 100 1033.4
20190223100918 47 0 0.0 4.0 0.00 0.02 0.02 100 1033.4
20190223095918 47 0 0.0 1.0 0.00 0.02 0.02 100 1033.3
20190223094918 47 0 0.0 1.0 0.00 0.02 0.02 100 1033.4
20190223093917 46 0 0.0 1.0 0.00 0.02 0.02 100 1033.5
20190223092917 46 0 0.0 0.0 0.00 0.02 0.02 100 1033.5
20190223091917 45 0 0.0 0.0 0.00 0.02 0.02 100 1033.4
20190223090917 45 0 0.0 1.0 0.00 0.02 0.02 100 1033.2
20190223085917 44 0 0.0 1.0 0.00 0.02 0.02 100 1033.2
20190223084917 44 0 0.0 0.0 0.00 0.02 0.02 100 1033.4
20190223083917 43 0 0.0 0.0 0.00 0.02 0.02 100 1033.3
20190223082919 43 0 0.0 0.0 0.00 0.02 0.02 100 1033.3
20190223081917 42 0 0.0 1.0 0.01 0.02 0.02 100 1033.1
20190223080918 42 0 0.0 1.0 0.01 0.02 0.02 100 1032.8
20190223075917 42 0 0.0 1.0 0.01 0.02 0.02 100 1032.9
20190223074917 41 0 0.0 3.0 0.01 0.02 0.02 100 1032.9
20190223073917 40 0 0.0 4.0 0.01 0.02 0.02 100 1032.9
20190223072917 40 0 0.0 1.0 0.01 0.02 0.02 100 1033.1
20190223071918 40 0 0.0 0.0 0.00 0.01 0.01 100 1033.0
20190223070919 40 0 0.0 0.0 0.00 0.01 0.01 100 1033.1
20190223065917 40 0 0.0 0.0 0.00 0.01 0.01 99 1033.0
20190223064917 40 0 0.0 1.0 0.00 0.01 0.01 99 1033.0
20190223063918 40 0 0.0 0.0 0.00 0.01 0.01 99 1033.0
20190223062917 41 0 0.0 0.0 0.00 0.01 0.01 99 1033.0
20190223061917 41 0 0.0 0.0 0.00 0.01 0.01 99 1033.1
20190223060917 41 0 0.0 0.0 0.00 0.01 0.01 100 1033.0
20190223055917 42 0 0.0 0.0 0.00 0.01 0.01 100 1033.1
20190223054917 42 0 0.0 0.0 0.00 0.01 0.01 100 1033.2
20190223053917 41 0 0.0 0.0 0.00 0.01 0.01 100 1033.1
20190223052917 41 0 0.0 0.0 0.00 0.01 0.01 100 1033.2
20190223051918 41 0 0.0 0.0 0.00 0.01 0.01 100 1033.2
20190223050917 41 0 0.0 0.0 0.00 0.01 0.01 100 1033.1
20190223045917 41 0 0.0 0.0 0.00 0.01 0.01 100 1033.1
20190223044917 41 0 0.0 0.0 0.00 0.01 0.01 100 1033.0
20190223043917 41 0 0.0 0.0 0.00 0.01 0.01 100 1032.8
20190223042917 41 0 0.0 0.0 0.00 0.01 0.01 99 1032.7
20190223041917 41 0 0.0 0.0 0.00 0.01 0.01 99 1032.5
20190223040917 42 0 0.0 0.0 0.00 0.01 0.01 100 1032.4
20190223035917 42 0 0.0 0.0 0.00 0.01 0.01 100 1032.4
20190223034917 42 0 0.0 0.0 0.00 0.01 0.01 100 1032.4
20190223033917 42 0 0.0 0.0 0.00 0.01 0.01 100 1032.4
20190223032917 42 0 0.0 0.0 0.00 0.01 0.01 100 1032.3
20190223031917 42 0 0.0 0.0 0.00 0.01 0.01 100 1032.4
20190223030917 42 0 0.0 0.0 0.00 0.01 0.01 100 1032.4
20190223025917 41 0 0.0 0.0 0.00 0.01 0.01 100 1032.4
20190223024918 41 0 0.0 0.0 0.00 0.01 0.01 100 1032.4
20190223023917 41 0 0.0 0.0 0.00 0.01 0.01 100 1032.6
20190223022917 41 0 0.0 0.0 0.00 0.01 0.01 99 1032.5
20190223021917 41 0 0.0 0.0 0.00 0.01 0.01 99 1032.4
20190223020917 40 0 0.0 0.0 0.00 0.01 0.01 99 1032.5
20190223015917 40 0 0.0 1.0 0.01 0.01 0.01 99 1032.6
20190223014917 40 0 0.0 1.0 0.01 0.01 0.01 99 1032.7
20190223013917 40 0 0.0 1.0 0.01 0.01 0.01 99 1032.9
20190223012916 40 0 0.0 1.0 0.01 0.01 0.01 99 1033.0